Regional Weather Roundup
Issued by NWS Cleveland, OH

Home | Current Version | Previous Version | Graphics & Text | Print | Product List | Glossary On
Versions: 1 2 3 4 5 6 7 8 9 10 11 12 13 14 15 16 17 18 19 20 21 22 23 24 25 26 27 28 29 30 31 32 33 34 35 36 37 38 39 40 41 42 43 44 45 46 47 48 49 50
000
ASUS41 KCLE 181010
RWRCLE
OHIO REGIONAL WEATHER ROUNDUP
NATIONAL WEATHER SERVICE WILMINGTON, OH
600 AM EDT WED OCT 18 2017

NOTE: "FAIR" INDICATES FEW OR NO CLOUDS BELOW 12,000 FEET WITH NO
SIGNIFICANT WEATHER AND/OR OBSTRUCTIONS TO VISIBILITY.

OHZ001>008-015>018-024>027-034-035-043-044-181100-
   NORTHWEST OHIO

CITY           SKY/WX    TMP DP  RH WIND       PRES   REMARKS
DEFIANCE       FAIR      45  38  76 S5        30.26R
FINDLAY        FAIR      45  38  76 S10       30.26R
TOLEDO EXPRESS FAIR      42  41  96 CALM      30.25R
TOLEDO EXEC    FAIR      43  38  82 S6        30.26R
LIMA           FAIR      44  40  85 S9        30.27S
$$

OHZ009>014-019>023-028>033-038-089-181100-
   NORTHEAST OHIO

CITY           SKY/WX    TMP DP  RH WIND       PRES   REMARKS
CLE-HOPKINS    FAIR      49  40  71 S8        30.30R
CLE-LAKEFRONT  FAIR      51  39  63 S10       30.27R
CUY CO. ARPT   NOT AVBL
LORAIN-ELYRIA  FAIR      43  35  73 S5        30.29R
ASHTABULA      FAIR      45  40  82 CALM      30.30R
AKRON-CANTON   FAIR      46  38  73 S3        30.30R
WOOSTER        FAIR      36  35  96 CALM      30.31R
MANSFIELD      FAIR      45  39  79 CALM      30.29R
YOUNGSTOWN     FAIR      44  38  79 CALM      30.30R
$$

OHZ042-051>053-060>062-070>072-077>081-181100-
  SOUTHWEST OHIO

CITY           SKY/WX    TMP DP  RH WIND       PRES   REMARKS
CINC-COVINGTON FAIR      46  41  82 E3        30.28R
CINC-LUNKEN    FOG       39  39 100 CALM      30.31S VSB 1/2
HAMILTON       FAIR      36  35  96 CALM      30.30S
DAYTON         FAIR      45  41  86 S3        30.29S
WRIGHT-PAT AFB CLEAR     42  40  93 SE3       30.29R
DAYTON GENERAL FAIR      44  38  79 S3        30.28S
WILMINGTON     FAIR      41  40  96 CALM      30.29S
$$

OHZ036-037-039>041-045>050-054>059-063>069-073>076-082>088-181100-
  CENTRAL AND SOUTHEAST OHIO

CITY           SKY/WX    TMP DP  RH WIND       PRES   REMARKS
COLUMBUS       FAIR      43  40  89 CALM      30.30R
OSU AIRPORT    FAIR      42  42 100 CALM      30.30R
BOLTON FIELD   FAIR      37  37  99 CALM      30.30S
RICKENBACK AFB FAIR      40  40  99 CALM      30.30R
NEWARK         FAIR      38  35  89 CALM      30.31R
MARION         FAIR      42  38  85 S6        30.29S
LANCASTER      FAIR      37  37 100 CALM      30.31R
ZANESVILLE     FAIR      39  36  89 CALM      30.31R
NEW PHILLY     FAIR      40  38  93 SE3       30.32R
$$



USA.gov is the U.S. government's official web portal to all federal, state and local government web resources and services.